Location: Vigo di Fassa
(46.4167°N, 11.6667°E)
Time: 21:30:01
(UTC+00:00)

Resurs 01 Rocket - Visible Passes

Search period start: 24 June 2021 00:00
Search period end: 04 July 2021 00:00
Orbit: 634 x 644 km, 97.9° (Epoch: 23 June)

Date Brightness Start Highest point End Pass type
(mag) Time Alt. Az. Time Alt. Az. Time Alt. Az.
24 Jun 4.1 20:58:42 10° SW 21:01:37 17° W 21:04:32 10° NW visible
25 Jun 1.7 19:43:31 10° SSE 19:47:55 89° E 19:52:22 10° NNW visible
26 Jun 2.3 20:06:49 10° S 20:11:07 53° W 20:15:27 10° NNW visible
27 Jun 3.2 20:30:29 10° SSW 20:34:24 31° W 20:38:20 10° NNW visible
28 Jun 4.0 20:54:38 10° SW 20:57:44 19° W 21:00:52 10° NW visible
29 Jun 1.6 19:39:42 10° SSE 19:44:06 82° ENE 19:48:31 10° NNW visible
29 Jun 4.4 21:20:00 10° WSW 21:21:11 11° W 21:22:21 10° WNW visible
30 Jun 2.2 20:02:56 10° S 20:07:16 58° W 20:11:39 10° NNW visible
01 Jul 3.1 20:26:32 10° SSW 20:30:32 34° W 20:34:34 10° NNW visible
02 Jul 3.8 20:50:35 10° SW 20:53:52 20° W 20:57:11 10° NW visible
03 Jul 4.3 21:15:34 10° WSW 21:17:18 12° W 21:19:01 10° WNW visible
